Regional Weather Roundup
Issued by NWS

Home | Current Version | Previous Version | Text Only | Print | Product List | Glossary On
Versions: 1 2 3 4 5 6 7 8 9 10 11 12 13 14 15 16 17 18 19 20 21 22 23 24 25 26 27 28 29 30 31 32 33 34 35 36 37 38 39 40 41 42 43 44 45 46
000
ASUS44 KBMX 220710
RWRAL

ALABAMA REGIONAL WEATHER ROUNDUP
NATIONAL WEATHER SERVICE BIRMINGHAM AL
200 AM CDT WED OCT 22 2014

NOTE: "FAIR" INDICATES FEW OR NO CLOUDS BELOW 12,000 FEET
WITH NO SIGNIFICANT WEATHER AND/OR OBSTRUCTIONS TO VISIBILITY.

THE REMARK "TC" DENOTES TEMPERATURE IN DEGREES CELSIUS.

ALZ001>011-014-016>018-020-220800-
NORTH ALABAMA

CITY           SKY/WX    TMP DP  RH WIND       PRES   REMARKS
MUSCLE SHOALS  CLEAR     55  44  66 NE6       30.12R
HUNTSVILLE     CLEAR     55  44  66 NE7       30.09R
DECATUR        CLEAR     53  44  71 NE8       30.10R
HALEYVILLE     FAIR      50  46  85 N5        30.12S
GADSDEN        CLEAR     46  43  87 CALM      30.08R
$$

ALZ012-013-022-023-030>036-040>044-220800-
WEST CENTRAL ALABAMA

CITY           SKY/WX    TMP DP  RH WIND       PRES   REMARKS
TUSCALOOSA     CLEAR     52  48  86 CALM      30.07R
$$

ALZ015-024>027-033>036-040>044-220800-
CENTRAL ALABAMA

CITY           SKY/WX    TMP DP  RH WIND       PRES   REMARKS
BIRMINGHAM     CLEAR     51  48  89 CALM      30.08R
MONTGOMERY     CLEAR     52  52 100 CALM      30.04S FOG
SHELBY CO ARPT CLEAR     53  49  86 CALM      30.06R
MAXWELL AFB    FOG       52  52 100 N3        30.03S VSB 1
GREENVILLE     NOT AVBL
$$

ALZ019-021-028-029-037-038-045>048-220800-
EAST CENTRAL ALABAMA

CITY           SKY/WX    TMP DP  RH WIND       PRES   REMARKS
ANNISTON       CLEAR     50  48  93 E6        30.06S
ALEXANDER CITY CLEAR     51  49  94 CALM      30.04S
AUBURN         CLEAR     54  45  71 N6        30.06S
$$

ALZ051>064-220800-
SOUTHWEST ALABAMA

CITY           SKY/WX    TMP DP  RH WIND       PRES   REMARKS
MOBILE         CLEAR     53  53 100 N6        30.02F
BROOKLEY FIELD CLEAR     55  54  96 NW3       30.03F
EVERGREEN      CLEAR     53  51  93 CALM      30.03S
$$

ALZ049-050-065>069-220800-
SOUTHEAST ALABAMA

CITY           SKY/WX    TMP DP  RH WIND       PRES   REMARKS
DOTHAN         CLEAR     56  53  90 N6        30.03F
OZARK          CLEAR     60  53  77 N5        30.00F
TROY           CLEAR     49  48  97 CALM      30.04S
EUFAULA        FAIR      52  50  93 CALM      30.01S
$$



USA.gov is the U.S. government's official web portal to all federal, state and local government web resources and services.